Time,TemperatureF,DewpointF,PressureIn,WindDirection,WindDirectionDegrees,WindSpeedMPH,WindSpeedGustMPH,Humidity,HourlyPrecipIn,Conditions,Clouds,dailyrainin,SoftwareType,DateUTC
2013-08-10 00:01:00,70.0,68.0,29.90,SSW,202,4.0,11.0,93,0.00,,,0.00,Rainwise IP-100,2013-08-10 04:01:00,
2013-08-10 00:06:00,70.0,67.0,29.90,South,180,5.0,8.0,92,0.00,,,0.00,Rainwise IP-100,2013-08-10 04:06:00,
2013-08-10 00:11:00,70.0,68.0,29.91,SSE,157,6.0,6.0,93,0.00,,,0.00,Rainwise IP-100,2013-08-10 04:11:00,
2013-08-10 00:16:00,69.0,67.0,29.91,SSE,157,5.0,7.0,94,0.00,,,0.00,Rainwise IP-100,2013-08-10 04:16:00,
2013-08-10 00:21:00,69.0,67.0,29.91,South,180,6.0,6.0,95,0.00,,,0.00,Rainwise IP-100,2013-08-10 04:21:00,
2013-08-10 00:26:00,69.0,66.0,29.91,SW,225,3.0,9.0,92,0.00,,,0.00,Rainwise IP-100,2013-08-10 04:26:00,
2013-08-10 00:31:00,69.0,66.0,29.91,South,180,6.0,9.0,93,0.00,,,0.00,Rainwise IP-100,2013-08-10 04:31:00,
2013-08-10 00:36:00,70.0,65.0,29.91,SSE,157,6.0,7.0,85,0.00,,,0.00,Rainwise IP-100,2013-08-10 04:36:00,
2013-08-10 00:41:00,70.0,64.0,29.91,NW,315,6.0,8.0,83,0.00,,,0.00,Rainwise IP-100,2013-08-10 04:41:00,
2013-08-10 00:46:00,69.0,65.0,29.91,ENE,67,4.0,7.0,88,0.00,,,0.00,Rainwise IP-100,2013-08-10 04:46:00,
2013-08-10 00:51:00,70.0,64.0,29.92,NW,315,9.0,10.0,81,0.00,,,0.01,Rainwise IP-100,2013-08-10 04:51:00,
2013-08-10 00:56:00,70.0,63.0,29.92,NNW,337,9.0,10.0,78,0.06,,,0.01,Rainwise IP-100,2013-08-10 04:56:00,
2013-08-10 01:01:00,71.0,63.0,29.91,NW,315,6.0,10.0,76,0.06,,,0.01,Rainwise IP-100,2013-08-10 05:01:00,
2013-08-10 01:06:00,71.0,63.0,29.91,South,180,0.0,6.0,78,0.00,,,0.01,Rainwise IP-100,2013-08-10 05:06:00,
2013-08-10 01:11:00,70.0,63.0,29.92,NW,315,2.0,3.0,79,0.00,,,0.01,Rainwise IP-100,2013-08-10 05:11:00,
2013-08-10 01:16:00,70.0,64.0,29.92,WSW,247,6.0,6.0,82,0.00,,,0.01,Rainwise IP-100,2013-08-10 05:16:00,
2013-08-10 01:21:00,70.0,63.0,29.92,South,180,2.0,6.0,80,0.00,,,0.01,Rainwise IP-100,2013-08-10 05:21:00,
2013-08-10 01:26:00,70.0,63.0,29.92,ESE,112,2.0,7.0,79,0.00,,,0.01,Rainwise IP-100,2013-08-10 05:26:00,
2013-08-10 01:31:00,70.0,63.0,29.92,SE,135,2.0,6.0,79,0.00,,,0.01,Rainwise IP-100,2013-08-10 05:31:00,
2013-08-10 01:36:00,68.0,63.0,29.92,SE,135,4.0,4.0,85,0.00,,,0.01,Rainwise IP-100,2013-08-10 05:36:00,
2013-08-10 01:41:00,68.0,64.0,29.93,SE,135,4.0,5.0,87,0.00,,,0.01,Rainwise IP-100,2013-08-10 05:41:00,
2013-08-10 01:46:00,69.0,61.0,29.93,NW,315,10.0,10.0,77,0.00,,,0.01,Rainwise IP-100,2013-08-10 05:46:00,
2013-08-10 01:51:00,70.0,61.0,29.92,NE,45,6.0,10.0,74,0.00,,,0.01,Rainwise IP-100,2013-08-10 05:51:00,
2013-08-10 01:56:00,70.0,62.0,29.92,SW,225,0.0,8.0,77,0.00,,,0.01,Rainwise IP-100,2013-08-10 05:56:00,
2013-08-10 02:01:00,69.0,63.0,29.93,ESE,112,3.0,6.0,81,0.00,,,0.01,Rainwise IP-100,2013-08-10 06:01:00,
2013-08-10 02:06:00,68.0,62.0,29.93,ESE,112,3.0,6.0,82,0.00,,,0.01,Rainwise IP-100,2013-08-10 06:06:00,
2013-08-10 02:11:00,68.0,63.0,29.93,SSE,157,5.0,6.0,84,0.00,,,0.01,Rainwise IP-100,2013-08-10 06:11:00,
2013-08-10 02:16:00,68.0,62.0,29.93,SSE,157,5.0,7.0,83,0.00,,,0.01,Rainwise IP-100,2013-08-10 06:16:00,
2013-08-10 02:21:00,69.0,61.0,29.93,ESE,112,3.0,8.0,77,0.00,,,0.01,Rainwise IP-100,2013-08-10 06:21:00,
2013-08-10 02:26:00,69.0,62.0,29.93,SSW,202,5.0,5.0,80,0.00,,,0.01,Rainwise IP-100,2013-08-10 06:26:00,
2013-08-10 02:31:00,69.0,61.0,29.93,ESE,112,6.0,9.0,78,0.00,,,0.01,Rainwise IP-100,2013-08-10 06:31:00,
2013-08-10 02:36:00,69.0,61.0,29.93,West,270,2.0,11.0,77,0.00,,,0.01,Rainwise IP-100,2013-08-10 06:36:00,
2013-08-10 02:41:00,69.0,61.0,29.93,SSE,157,6.0,9.0,78,0.00,,,0.01,Rainwise IP-100,2013-08-10 06:41:00,
2013-08-10 02:46:00,68.0,61.0,29.93,NW,315,4.0,7.0,79,0.00,,,0.01,Rainwise IP-100,2013-08-10 06:46:00,
2013-08-10 02:51:00,68.0,62.0,29.95,North,360,0.0,5.0,82,0.00,,,0.01,Rainwise IP-100,2013-08-10 06:51:00,
2013-08-10 02:56:00,68.0,60.0,29.95,NW,315,9.0,17.0,75,0.00,,,0.01,Rainwise IP-100,2013-08-10 06:56:00,
2013-08-10 03:01:00,68.0,60.0,29.95,East,90,0.0,12.0,77,0.00,,,0.01,Rainwise IP-100,2013-08-10 07:01:00,
2013-08-10 03:06:00,68.0,59.0,29.95,NW,315,10.0,17.0,73,0.00,,,0.01,Rainwise IP-100,2013-08-10 07:06:00,
2013-08-10 03:11:00,69.0,60.0,29.94,North,360,0.0,12.0,73,0.00,,,0.01,Rainwise IP-100,2013-08-10 07:11:00,
2013-08-10 03:16:00,68.0,59.0,29.94,NNW,337,7.0,20.0,74,0.00,,,0.01,Rainwise IP-100,2013-08-10 07:16:00,
2013-08-10 03:21:00,68.0,59.0,29.95,North,360,1.0,14.0,73,0.00,,,0.01,Rainwise IP-100,2013-08-10 07:21:00,
2013-08-10 03:26:00,68.0,60.0,29.95,NNE,22,0.0,8.0,76,0.00,,,0.01,Rainwise IP-100,2013-08-10 07:26:00,
2013-08-10 03:31:00,67.0,60.0,29.96,ESE,112,2.0,7.0,78,0.00,,,0.01,Rainwise IP-100,2013-08-10 07:31:00,
2013-08-10 03:36:00,67.0,61.0,29.96,WNW,292,1.0,5.0,80,0.00,,,0.01,Rainwise IP-100,2013-08-10 07:36:00,
2013-08-10 03:41:00,67.0,60.0,29.96,East,90,1.0,8.0,78,0.00,,,0.01,Rainwise IP-100,2013-08-10 07:41:00,
2013-08-10 03:46:00,67.0,59.0,29.96,West,270,3.0,10.0,75,0.00,,,0.01,Rainwise IP-100,2013-08-10 07:46:00,
2013-08-10 03:51:00,67.0,57.0,29.96,SW,225,7.0,9.0,71,0.00,,,0.01,Rainwise IP-100,2013-08-10 07:51:00,
2013-08-10 03:56:00,67.0,57.0,29.96,NW,315,10.0,10.0,72,0.00,,,0.01,Rainwise IP-100,2013-08-10 07:56:00,
2013-08-10 04:01:00,67.0,57.0,29.96,NW,315,5.0,15.0,70,0.00,,,0.01,Rainwise IP-100,2013-08-10 08:01:00,
2013-08-10 04:06:00,67.0,59.0,29.96,East,90,6.0,10.0,75,0.00,,,0.01,Rainwise IP-100,2013-08-10 08:06:00,
2013-08-10 04:11:00,66.0,58.0,29.97,East,90,5.0,7.0,76,0.00,,,0.01,Rainwise IP-100,2013-08-10 08:11:00,
2013-08-10 04:16:00,65.0,57.0,29.97,West,270,2.0,11.0,75,0.00,,,0.01,Rainwise IP-100,2013-08-10 08:16:00,
2013-08-10 04:21:00,65.0,56.0,29.97,NW,315,4.0,6.0,72,0.00,,,0.01,Rainwise IP-100,2013-08-10 08:21:00,
2013-08-10 04:26:00,65.0,56.0,29.97,East,90,2.0,10.0,74,0.00,,,0.01,Rainwise IP-100,2013-08-10 08:26:00,
2013-08-10 04:31:00,65.0,56.0,29.97,SE,135,2.0,9.0,74,0.00,,,0.01,Rainwise IP-100,2013-08-10 08:31:00,
2013-08-10 04:36:00,64.0,56.0,29.97,SW,225,4.0,6.0,75,0.00,,,0.01,Rainwise IP-100,2013-08-10 08:36:00,
2013-08-10 04:41:00,65.0,56.0,29.98,ESE,112,6.0,7.0,73,0.00,,,0.01,Rainwise IP-100,2013-08-10 08:41:00,
2013-08-10 04:46:00,64.0,55.0,29.98,East,90,5.0,7.0,73,0.00,,,0.01,Rainwise IP-100,2013-08-10 08:46:00,
2013-08-10 04:51:00,65.0,55.0,29.97,SE,135,6.0,7.0,71,0.00,,,0.01,Rainwise IP-100,2013-08-10 08:51:00,
2013-08-10 04:56:00,65.0,54.0,29.97,West,270,1.0,10.0,69,0.00,,,0.01,Rainwise IP-100,2013-08-10 08:56:00,
2013-08-10 05:01:00,64.0,56.0,29.98,SE,135,6.0,7.0,76,0.00,,,0.01,Rainwise IP-100,2013-08-10 09:01:00,
2013-08-10 05:06:00,64.0,56.0,29.98,SE,135,7.0,9.0,75,0.00,,,0.01,Rainwise IP-100,2013-08-10 09:06:00,
2013-08-10 05:11:00,65.0,54.0,29.97,NW,315,8.0,9.0,69,0.00,,,0.01,Rainwise IP-100,2013-08-10 09:11:00,
2013-08-10 05:16:00,65.0,54.0,29.97,NNW,337,4.0,12.0,67,0.00,,,0.01,Rainwise IP-100,2013-08-10 09:16:00,
2013-08-10 05:21:00,65.0,54.0,29.97,NW,315,1.0,5.0,68,0.00,,,0.01,Rainwise IP-100,2013-08-10 09:21:00,
2013-08-10 05:26:00,64.0,54.0,29.97,East,90,5.0,5.0,70,0.00,,,0.01,Rainwise IP-100,2013-08-10 09:26:00,
2013-08-10 05:31:00,64.0,53.0,29.98,SW,225,1.0,8.0,68,0.00,,,0.01,Rainwise IP-100,2013-08-10 09:31:00,
2013-08-10 05:36:00,64.0,54.0,29.98,SSE,157,4.0,8.0,70,0.00,,,0.01,Rainwise IP-100,2013-08-10 09:36:00,
2013-08-10 05:41:00,64.0,54.0,29.98,ESE,112,6.0,6.0,72,0.00,,,0.01,Rainwise IP-100,2013-08-10 09:41:00,
2013-08-10 05:46:00,63.0,55.0,29.98,ESE,112,5.0,7.0,75,0.00,,,0.01,Rainwise IP-100,2013-08-10 09:46:00,
2013-08-10 05:51:00,63.0,54.0,29.98,NNE,22,4.0,6.0,73,0.00,,,0.01,Rainwise IP-100,2013-08-10 09:51:00,
2013-08-10 05:56:00,63.0,54.0,29.99,ESE,112,3.0,5.0,72,0.00,,,0.01,Rainwise IP-100,2013-08-10 09:56:00,
2013-08-10 06:01:00,64.0,55.0,29.98,WSW,247,5.0,8.0,73,0.00,,,0.01,Rainwise IP-100,2013-08-10 10:01:00,
2013-08-10 06:06:00,64.0,55.0,29.98,NW,315,7.0,9.0,73,0.00,,,0.01,Rainwise IP-100,2013-08-10 10:06:00,
2013-08-10 06:11:00,64.0,54.0,29.98,WNW,292,2.0,12.0,70,0.00,,,0.01,Rainwise IP-100,2013-08-10 10:11:00,
2013-08-10 06:16:00,64.0,54.0,29.98,East,90,3.0,7.0,70,0.00,,,0.01,Rainwise IP-100,2013-08-10 10:16:00,
2013-08-10 06:21:00,64.0,54.0,29.98,SW,225,8.0,8.0,71,0.00,,,0.01,Rainwise IP-100,2013-08-10 10:21:00,
2013-08-10 06:26:00,64.0,54.0,29.97,NNW,337,2.0,9.0,72,0.00,,,0.01,Rainwise IP-100,2013-08-10 10:26:00,
2013-08-10 06:31:00,64.0,55.0,29.97,SSE,157,6.0,7.0,74,0.00,,,0.01,Rainwise IP-100,2013-08-10 10:31:00,
2013-08-10 06:36:00,64.0,55.0,29.98,ESE,112,4.0,7.0,74,0.00,,,0.01,Rainwise IP-100,2013-08-10 10:36:00,
2013-08-10 06:41:00,64.0,55.0,29.98,South,180,6.0,8.0,73,0.00,,,0.01,Rainwise IP-100,2013-08-10 10:41:00,
2013-08-10 06:46:00,65.0,53.0,29.99,East,90,9.0,11.0,66,0.00,,,0.01,Rainwise IP-100,2013-08-10 10:46:00,
2013-08-10 06:51:00,65.0,54.0,29.98,SE,135,6.0,9.0,69,0.00,,,0.01,Rainwise IP-100,2013-08-10 10:51:00,
2013-08-10 06:56:00,65.0,56.0,29.98,South,180,4.0,7.0,72,0.00,,,0.01,Rainwise IP-100,2013-08-10 10:56:00,
2013-08-10 07:01:00,65.0,55.0,29.98,East,90,3.0,5.0,71,0.00,,,0.01,Rainwise IP-100,2013-08-10 11:01:00,
2013-08-10 07:06:00,65.0,57.0,29.98,SE,135,2.0,3.0,78,0.00,,,0.01,Rainwise IP-100,2013-08-10 11:06:00,
2013-08-10 07:11:00,65.0,56.0,29.99,South,180,0.0,6.0,72,0.00,,,0.01,Rainwise IP-100,2013-08-10 11:11:00,
2013-08-10 07:16:00,65.0,54.0,29.99,SSE,157,1.0,6.0,68,0.00,,,0.01,Rainwise IP-100,2013-08-10 11:16:00,
2013-08-10 07:21:00,65.0,55.0,29.99,ESE,112,5.0,7.0,71,0.00,,,0.01,Rainwise IP-100,2013-08-10 11:21:00,
2013-08-10 07:26:00,66.0,56.0,29.99,NE,45,1.0,7.0,72,0.00,,,0.01,Rainwise IP-100,2013-08-10 11:26:00,
2013-08-10 07:31:00,66.0,56.0,29.99,East,90,2.0,4.0,72,0.00,,,0.01,Rainwise IP-100,2013-08-10 11:31:00,
2013-08-10 07:36:00,66.0,56.0,29.99,NW,315,6.0,9.0,72,0.00,,,0.01,Rainwise IP-100,2013-08-10 11:36:00,
2013-08-10 07:41:00,65.0,56.0,29.99,NNW,337,12.0,14.0,73,0.00,,,0.01,Rainwise IP-100,2013-08-10 11:41:00,
2013-08-10 07:46:00,65.0,55.0,30.01,North,360,16.0,16.0,71,0.00,,,0.01,Rainwise IP-100,2013-08-10 11:46:00,
2013-08-10 07:51:00,65.0,56.0,30.01,North,360,6.0,20.0,74,0.00,,,0.01,Rainwise IP-100,2013-08-10 11:51:00,
2013-08-10 07:56:00,65.0,56.0,30.01,North,360,3.0,12.0,74,0.00,,,0.01,Rainwise IP-100,2013-08-10 11:56:00,
2013-08-10 08:01:00,65.0,56.0,30.01,NNW,337,11.0,11.0,74,0.00,,,0.01,Rainwise IP-100,2013-08-10 12:01:00,
2013-08-10 08:06:00,64.0,56.0,30.01,NNW,337,8.0,12.0,76,0.00,,,0.01,Rainwise IP-100,2013-08-10 12:06:00,
2013-08-10 08:11:00,64.0,56.0,30.01,NNE,22,2.0,14.0,75,0.00,,,0.01,Rainwise IP-100,2013-08-10 12:11:00,
2013-08-10 08:16:00,64.0,56.0,30.01,North,360,7.0,9.0,75,0.00,,,0.01,Rainwise IP-100,2013-08-10 12:16:00,
2013-08-10 08:21:00,64.0,56.0,30.01,NW,315,3.0,10.0,75,0.00,,,0.01,Rainwise IP-100,2013-08-10 12:21:00,
2013-08-10 08:26:00,64.0,55.0,30.02,NW,315,4.0,13.0,74,0.00,,,0.01,Rainwise IP-100,2013-08-10 12:26:00,
2013-08-10 08:31:00,65.0,56.0,30.02,NW,315,4.0,25.0,74,0.00,,,0.01,Rainwise IP-100,2013-08-10 12:31:00,
2013-08-10 08:36:00,64.0,56.0,30.02,NW,315,12.0,12.0,75,0.00,,,0.01,Rainwise IP-100,2013-08-10 12:36:00,
2013-08-10 08:41:00,65.0,57.0,30.02,NW,315,1.0,14.0,76,0.00,,,0.01,Rainwise IP-100,2013-08-10 12:41:00,
2013-08-10 08:46:00,64.0,56.0,30.02,North,360,3.0,10.0,75,0.00,,,0.01,Rainwise IP-100,2013-08-10 12:46:00,
2013-08-10 08:51:00,64.0,56.0,30.02,NW,315,12.0,16.0,75,0.00,,,0.01,Rainwise IP-100,2013-08-10 12:51:00,
2013-08-10 08:56:00,64.0,56.0,30.02,NW,315,9.0,13.0,75,0.00,,,0.01,Rainwise IP-100,2013-08-10 12:56:00,
2013-08-10 09:01:00,65.0,57.0,30.02,NW,315,6.0,9.0,75,0.00,,,0.01,Rainwise IP-100,2013-08-10 13:01:00,
2013-08-10 09:06:00,65.0,56.0,30.02,North,360,10.0,10.0,72,0.00,,,0.01,Rainwise IP-100,2013-08-10 13:06:00,
2013-08-10 09:11:00,65.0,54.0,30.03,North,360,7.0,12.0,70,0.00,,,0.01,Rainwise IP-100,2013-08-10 13:11:00,
2013-08-10 09:16:00,65.0,56.0,30.03,NNW,337,9.0,12.0,73,0.00,,,0.01,Rainwise IP-100,2013-08-10 13:16:00,
2013-08-10 09:21:00,65.0,54.0,30.03,North,360,10.0,12.0,69,0.00,,,0.01,Rainwise IP-100,2013-08-10 13:21:00,
2013-08-10 09:26:00,65.0,55.0,30.03,West,270,6.0,15.0,71,0.00,,,0.01,Rainwise IP-100,2013-08-10 13:26:00,
2013-08-10 09:31:00,65.0,55.0,30.04,WNW,292,12.0,18.0,71,0.00,,,0.01,Rainwise IP-100,2013-08-10 13:31:00,
2013-08-10 09:36:00,65.0,54.0,30.04,NW,315,10.0,19.0,70,0.00,,,0.01,Rainwise IP-100,2013-08-10 13:36:00,
2013-08-10 09:41:00,66.0,55.0,30.04,NNE,22,6.0,13.0,69,0.00,,,0.01,Rainwise IP-100,2013-08-10 13:41:00,
2013-08-10 09:46:00,65.0,54.0,30.04,North,360,8.0,13.0,68,0.00,,,0.01,Rainwise IP-100,2013-08-10 13:46:00,
2013-08-10 09:51:00,66.0,55.0,30.04,North,360,7.0,13.0,69,0.00,,,0.01,Rainwise IP-100,2013-08-10 13:51:00,
2013-08-10 09:56:00,66.0,55.0,30.04,WNW,292,6.0,10.0,69,0.00,,,0.01,Rainwise IP-100,2013-08-10 13:56:00,
2013-08-10 10:01:00,65.0,54.0,30.05,NW,315,12.0,12.0,67,0.00,,,0.01,Rainwise IP-100,2013-08-10 14:01:00,
2013-08-10 10:06:00,65.0,53.0,30.05,NW,315,6.0,14.0,66,0.00,,,0.01,Rainwise IP-100,2013-08-10 14:06:00,
2013-08-10 10:11:00,65.0,53.0,30.05,North,360,9.0,17.0,65,0.00,,,0.01,Rainwise IP-100,2013-08-10 14:11:00,
2013-08-10 10:16:00,65.0,54.0,30.05,North,360,7.0,10.0,68,0.00,,,0.01,Rainwise IP-100,2013-08-10 14:16:00,
2013-08-10 10:21:00,65.0,54.0,30.05,North,360,7.0,16.0,67,0.00,,,0.01,Rainwise IP-100,2013-08-10 14:21:00,
2013-08-10 10:26:00,65.0,54.0,30.05,NW,315,8.0,15.0,67,0.00,,,0.01,Rainwise IP-100,2013-08-10 14:26:00,
2013-08-10 10:31:00,65.0,54.0,30.05,NW,315,10.0,17.0,67,0.00,,,0.01,Rainwise IP-100,2013-08-10 14:31:00,
2013-08-10 10:36:00,65.0,53.0,30.05,NW,315,8.0,15.0,66,0.00,,,0.01,Rainwise IP-100,2013-08-10 14:36:00,
2013-08-10 10:41:00,65.0,53.0,30.05,North,360,4.0,14.0,66,0.00,,,0.01,Rainwise IP-100,2013-08-10 14:41:00,
2013-08-10 10:46:00,65.0,51.0,30.06,NW,315,11.0,19.0,61,0.00,,,0.01,Rainwise IP-100,2013-08-10 14:46:00,
2013-08-10 10:51:00,65.0,50.0,30.06,SW,225,1.0,19.0,60,0.00,,,0.01,Rainwise IP-100,2013-08-10 14:51:00,
2013-08-10 10:56:00,65.0,53.0,30.06,NW,315,13.0,13.0,66,0.00,,,0.01,Rainwise IP-100,2013-08-10 14:56:00,
2013-08-10 11:01:00,65.0,50.0,30.06,NW,315,12.0,18.0,59,0.00,,,0.01,Rainwise IP-100,2013-08-10 15:01:00,
2013-08-10 11:05:00,65.0,50.0,30.06,North,360,7.0,20.0,60,0.00,,,0.01,Rainwise IP-100,2013-08-10 15:05:00,
2013-08-10 11:08:00,65.0,50.0,30.06,NW,315,9.0,15.0,59,0.00,,,0.01,Rainwise IP-100,2013-08-10 15:08:00,
2013-08-10 11:13:00,65.0,53.0,30.05,NW,315,11.0,16.0,65,0.00,,,0.01,Rainwise IP-100,2013-08-10 15:13:00,
2013-08-10 11:18:00,65.0,49.0,30.05,NNW,337,16.0,21.0,57,0.00,,,0.01,Rainwise IP-100,2013-08-10 15:18:00,
2013-08-10 11:23:00,65.0,49.0,30.05,North,360,7.0,16.0,57,0.00,,,0.01,Rainwise IP-100,2013-08-10 15:23:00,
2013-08-10 11:28:00,65.0,49.0,30.05,North,360,5.0,16.0,57,0.00,,,0.01,Rainwise IP-100,2013-08-10 15:28:00,
2013-08-10 11:33:00,65.0,49.0,30.05,NNW,337,10.0,15.0,56,0.00,,,0.01,Rainwise IP-100,2013-08-10 15:33:00,
2013-08-10 11:38:00,65.0,48.0,30.05,NNW,337,9.0,18.0,55,0.00,,,0.01,Rainwise IP-100,2013-08-10 15:38:00,
2013-08-10 11:43:00,66.0,50.0,30.06,WNW,292,3.0,19.0,56,0.00,,,0.01,Rainwise IP-100,2013-08-10 15:43:00,
2013-08-10 11:48:00,66.0,49.0,30.06,NW,315,12.0,20.0,54,0.00,,,0.01,Rainwise IP-100,2013-08-10 15:48:00,
2013-08-10 11:53:00,66.0,50.0,30.05,NW,315,8.0,14.0,56,0.00,,,0.01,Rainwise IP-100,2013-08-10 15:53:00,
2013-08-10 11:58:00,66.0,49.0,30.05,North,360,10.0,16.0,54,0.00,,,0.01,Rainwise IP-100,2013-08-10 15:58:00,
2013-08-10 12:03:00,66.0,50.0,30.06,NW,315,10.0,14.0,58,0.00,,,0.01,Rainwise IP-100,2013-08-10 16:03:00,
2013-08-10 12:08:00,66.0,49.0,30.06,NW,315,7.0,18.0,55,0.00,,,0.01,Rainwise IP-100,2013-08-10 16:08:00,
2013-08-10 12:13:00,66.0,49.0,30.05,North,360,9.0,19.0,54,0.00,,,0.01,Rainwise IP-100,2013-08-10 16:13:00,
2013-08-10 12:18:00,66.0,48.0,30.05,NNW,337,9.0,16.0,53,0.00,,,0.01,Rainwise IP-100,2013-08-10 16:18:00,
2013-08-10 12:23:00,66.0,49.0,30.05,NW,315,6.0,13.0,54,0.00,,,0.01,Rainwise IP-100,2013-08-10 16:23:00,
2013-08-10 12:28:00,66.0,49.0,30.05,NW,315,10.0,10.0,54,0.00,,,0.01,Rainwise IP-100,2013-08-10 16:28:00,
2013-08-10 12:33:00,67.0,50.0,30.05,NNW,337,7.0,17.0,54,0.00,,,0.01,Rainwise IP-100,2013-08-10 16:33:00,
2013-08-10 12:38:00,67.0,49.0,30.05,NW,315,9.0,16.0,52,0.00,,,0.01,Rainwise IP-100,2013-08-10 16:38:00,
2013-08-10 12:43:00,67.0,49.0,30.05,WNW,292,15.0,19.0,52,0.00,,,0.01,Rainwise IP-100,2013-08-10 16:43:00,
2013-08-10 12:48:00,67.0,48.0,30.05,NW,315,9.0,17.0,50,0.00,,,0.01,Rainwise IP-100,2013-08-10 16:48:00,
2013-08-10 12:53:00,67.0,50.0,30.05,West,270,8.0,17.0,53,0.00,,,0.01,Rainwise IP-100,2013-08-10 16:53:00,
2013-08-10 12:58:00,67.0,48.0,30.05,ESE,112,0.0,10.0,51,0.00,,,0.01,Rainwise IP-100,2013-08-10 16:58:00,
2013-08-10 13:03:00,68.0,49.0,30.05,NNW,337,4.0,15.0,51,0.00,,,0.01,Rainwise IP-100,2013-08-10 17:03:00,
2013-08-10 13:08:00,68.0,47.0,30.05,NW,315,19.0,19.0,48,0.00,,,0.01,Rainwise IP-100,2013-08-10 17:08:00,
2013-08-10 13:13:00,68.0,50.0,30.05,NNW,337,9.0,19.0,52,0.00,,,0.01,Rainwise IP-100,2013-08-10 17:13:00,
2013-08-10 13:18:00,67.0,48.0,30.05,NNW,337,15.0,18.0,51,0.00,,,0.01,Rainwise IP-100,2013-08-10 17:18:00,
2013-08-10 13:23:00,67.0,50.0,30.05,NW,315,12.0,19.0,53,0.00,,,0.01,Rainwise IP-100,2013-08-10 17:23:00,
2013-08-10 13:28:00,67.0,48.0,30.05,NNW,337,12.0,20.0,50,0.00,,,0.01,Rainwise IP-100,2013-08-10 17:28:00,
2013-08-10 13:33:00,67.0,50.0,30.05,NW,315,10.0,22.0,54,0.00,,,0.01,Rainwise IP-100,2013-08-10 17:33:00,
2013-08-10 13:38:00,68.0,50.0,30.05,NW,315,18.0,21.0,52,0.00,,,0.01,Rainwise IP-100,2013-08-10 17:38:00,
2013-08-10 13:43:00,68.0,49.0,30.05,North,360,9.0,21.0,50,0.00,,,0.01,Rainwise IP-100,2013-08-10 17:43:00,
2013-08-10 13:48:00,68.0,49.0,30.05,NNW,337,12.0,17.0,50,0.00,,,0.01,Rainwise IP-100,2013-08-10 17:48:00,
2013-08-10 13:53:00,68.0,49.0,30.05,NNW,337,13.0,13.0,51,0.00,,,0.01,Rainwise IP-100,2013-08-10 17:53:00,
2013-08-10 13:58:00,68.0,49.0,30.05,NW,315,9.0,13.0,50,0.00,,,0.01,Rainwise IP-100,2013-08-10 17:58:00,
2013-08-10 14:03:00,68.0,48.0,30.04,NNW,337,14.0,15.0,49,0.00,,,0.01,Rainwise IP-100,2013-08-10 18:03:00,
2013-08-10 14:08:00,69.0,50.0,30.04,NNE,22,7.0,15.0,51,0.00,,,0.01,Rainwise IP-100,2013-08-10 18:08:00,
2013-08-10 14:13:00,68.0,49.0,30.05,NNW,337,13.0,16.0,50,0.00,,,0.01,Rainwise IP-100,2013-08-10 18:13:00,
2013-08-10 14:18:00,68.0,49.0,30.05,NW,315,11.0,16.0,50,0.00,,,0.01,Rainwise IP-100,2013-08-10 18:18:00,
2013-08-10 14:23:00,69.0,50.0,30.05,NNW,337,18.0,19.0,50,0.00,,,0.01,Rainwise IP-100,2013-08-10 18:23:00,
2013-08-10 14:28:00,69.0,49.0,30.05,North,360,9.0,19.0,49,0.00,,,0.01,Rainwise IP-100,2013-08-10 18:28:00,
2013-08-10 14:33:00,69.0,49.0,30.05,NW,315,12.0,13.0,49,0.00,,,0.01,Rainwise IP-100,2013-08-10 18:33:00,
2013-08-10 14:38:00,69.0,47.0,30.05,NW,315,15.0,18.0,46,0.00,,,0.01,Rainwise IP-100,2013-08-10 18:38:00,
2013-08-10 14:43:00,69.0,47.0,30.04,NW,315,10.0,18.0,47,0.00,,,0.01,Rainwise IP-100,2013-08-10 18:43:00,
2013-08-10 14:48:00,69.0,47.0,30.04,NNW,337,9.0,15.0,47,0.00,,,0.01,Rainwise IP-100,2013-08-10 18:48:00,
2013-08-10 14:53:00,69.0,47.0,30.05,NNW,337,6.0,17.0,46,0.00,,,0.01,Rainwise IP-100,2013-08-10 18:53:00,
2013-08-10 14:58:00,69.0,47.0,30.05,NNW,337,10.0,19.0,45,0.00,,,0.01,Rainwise IP-100,2013-08-10 18:58:00,
2013-08-10 15:03:00,69.0,47.0,30.05,NW,315,12.0,17.0,46,0.00,,,0.01,Rainwise IP-100,2013-08-10 19:03:00,
2013-08-10 15:08:00,68.0,47.0,30.05,NW,315,12.0,21.0,48,0.00,,,0.01,Rainwise IP-100,2013-08-10 19:08:00,
2013-08-10 15:13:00,69.0,48.0,30.05,NW,315,8.0,17.0,48,0.00,,,0.01,Rainwise IP-100,2013-08-10 19:13:00,
2013-08-10 15:18:00,69.0,49.0,30.05,NW,315,10.0,20.0,49,0.00,,,0.01,Rainwise IP-100,2013-08-10 19:18:00,
2013-08-10 15:23:00,68.0,46.0,30.06,NW,315,10.0,18.0,45,0.00,,,0.01,Rainwise IP-100,2013-08-10 19:23:00,
2013-08-10 15:28:00,69.0,47.0,30.06,NNW,337,15.0,22.0,47,0.00,,,0.01,Rainwise IP-100,2013-08-10 19:28:00,
2013-08-10 15:33:00,69.0,48.0,30.05,NW,315,6.0,19.0,48,0.00,,,0.01,Rainwise IP-100,2013-08-10 19:33:00,
2013-08-10 15:38:00,69.0,48.0,30.05,NNW,337,13.0,13.0,48,0.00,,,0.01,Rainwise IP-100,2013-08-10 19:38:00,
2013-08-10 15:43:00,69.0,47.0,30.05,NW,315,13.0,17.0,47,0.00,,,0.01,Rainwise IP-100,2013-08-10 19:43:00,
2013-08-10 15:48:00,68.0,47.0,30.05,NNW,337,11.0,16.0,47,0.00,,,0.01,Rainwise IP-100,2013-08-10 19:48:00,
2013-08-10 15:53:00,69.0,47.0,30.06,NNW,337,9.0,29.0,47,0.00,,,0.01,Rainwise IP-100,2013-08-10 19:53:00,
2013-08-10 15:58:00,68.0,47.0,30.06,NW,315,13.0,19.0,46,0.00,,,0.01,Rainwise IP-100,2013-08-10 19:58:00,
2013-08-10 16:03:00,68.0,46.0,30.05,NNW,337,12.0,17.0,45,0.00,,,0.01,Rainwise IP-100,2013-08-10 20:03:00,
2013-08-10 16:08:00,69.0,47.0,30.05,NW,315,8.0,15.0,47,0.00,,,0.01,Rainwise IP-100,2013-08-10 20:08:00,
2013-08-10 16:13:00,69.0,47.0,30.05,NW,315,11.0,13.0,47,0.00,,,0.01,Rainwise IP-100,2013-08-10 20:13:00,
2013-08-10 16:18:00,69.0,47.0,30.05,NW,315,14.0,15.0,46,0.00,,,0.01,Rainwise IP-100,2013-08-10 20:18:00,
2013-08-10 16:23:00,69.0,48.0,30.06,North,360,9.0,15.0,48,0.00,,,0.01,Rainwise IP-100,2013-08-10 20:23:00,
2013-08-10 16:28:00,70.0,50.0,30.06,North,360,7.0,12.0,48,0.00,,,0.01,Rainwise IP-100,2013-08-10 20:28:00,
2013-08-10 16:33:00,70.0,47.0,30.06,NNW,337,9.0,17.0,43,0.00,,,0.01,Rainwise IP-100,2013-08-10 20:33:00,
2013-08-10 16:38:00,69.0,46.0,30.06,NW,315,13.0,16.0,44,0.00,,,0.01,Rainwise IP-100,2013-08-10 20:38:00,
2013-08-10 16:43:00,69.0,47.0,30.06,NW,315,9.0,19.0,46,0.00,,,0.01,Rainwise IP-100,2013-08-10 20:43:00,
2013-08-10 16:48:00,69.0,46.0,30.06,NW,315,10.0,16.0,43,0.00,,,0.01,Rainwise IP-100,2013-08-10 20:48:00,
2013-08-10 16:53:00,69.0,47.0,30.07,NNW,337,13.0,13.0,45,0.00,,,0.01,Rainwise IP-100,2013-08-10 20:53:00,
2013-08-10 16:58:00,69.0,48.0,30.07,NW,315,4.0,16.0,48,0.00,,,0.01,Rainwise IP-100,2013-08-10 20:58:00,
2013-08-10 17:03:00,70.0,47.0,30.06,North,360,11.0,13.0,45,0.00,,,0.01,Rainwise IP-100,2013-08-10 21:03:00,
2013-08-10 17:08:00,70.0,50.0,30.06,NNW,337,6.0,12.0,49,0.00,,,0.01,Rainwise IP-100,2013-08-10 21:08:00,
2013-08-10 17:13:00,70.0,48.0,30.06,NW,315,7.0,15.0,46,0.00,,,0.01,Rainwise IP-100,2013-08-10 21:13:00,
2013-08-10 17:18:00,69.0,48.0,30.06,NNW,337,7.0,13.0,48,0.00,,,0.01,Rainwise IP-100,2013-08-10 21:18:00,
2013-08-10 17:23:00,69.0,50.0,30.07,NNW,337,7.0,13.0,50,0.00,,,0.01,Rainwise IP-100,2013-08-10 21:23:00,
2013-08-10 17:28:00,70.0,50.0,30.07,NE,45,1.0,10.0,49,0.00,,,0.01,Rainwise IP-100,2013-08-10 21:28:00,
2013-08-10 17:33:00,70.0,50.0,30.07,NE,45,1.0,6.0,48,0.00,,,0.01,Rainwise IP-100,2013-08-10 21:33:00,
2013-08-10 17:38:00,70.0,50.0,30.07,NNE,22,5.0,7.0,49,0.00,,,0.01,Rainwise IP-100,2013-08-10 21:38:00,
2013-08-10 17:43:00,70.0,50.0,30.07,NE,45,4.0,8.0,48,0.00,,,0.01,Rainwise IP-100,2013-08-10 21:43:00,
2013-08-10 17:48:00,69.0,49.0,30.07,NE,45,7.0,12.0,49,0.00,,,0.01,Rainwise IP-100,2013-08-10 21:48:00,
2013-08-10 17:53:00,69.0,50.0,30.07,North,360,7.0,15.0,50,0.00,,,0.01,Rainwise IP-100,2013-08-10 21:53:00,
2013-08-10 17:58:00,69.0,50.0,30.07,NE,45,4.0,16.0,50,0.00,,,0.01,Rainwise IP-100,2013-08-10 21:58:00,
2013-08-10 18:03:00,68.0,50.0,30.08,South,180,3.0,15.0,52,0.00,,,0.01,Rainwise IP-100,2013-08-10 22:03:00,
2013-08-10 18:08:00,69.0,50.0,30.08,NW,315,6.0,10.0,51,0.00,,,0.01,Rainwise IP-100,2013-08-10 22:08:00,
2013-08-10 18:13:00,69.0,50.0,30.07,NNE,22,2.0,11.0,50,0.00,,,0.01,Rainwise IP-100,2013-08-10 22:13:00,
2013-08-10 18:18:00,68.0,49.0,30.07,NNW,337,8.0,11.0,51,0.00,,,0.01,Rainwise IP-100,2013-08-10 22:18:00,
2013-08-10 18:23:00,68.0,50.0,30.09,East,90,4.0,14.0,54,0.00,,,0.01,Rainwise IP-100,2013-08-10 22:23:00,
2013-08-10 18:28:00,68.0,50.0,30.09,NE,45,3.0,10.0,52,0.00,,,0.01,Rainwise IP-100,2013-08-10 22:28:00,
2013-08-10 18:33:00,68.0,50.0,30.09,NW,315,2.0,15.0,53,0.00,,,0.01,Rainwise IP-100,2013-08-10 22:33:00,
2013-08-10 18:38:00,67.0,50.0,30.09,North,360,3.0,14.0,54,0.00,,,0.01,Rainwise IP-100,2013-08-10 22:38:00,
2013-08-10 18:43:00,67.0,50.0,30.09,NNW,337,2.0,14.0,54,0.00,,,0.01,Rainwise IP-100,2013-08-10 22:43:00,
2013-08-10 18:48:00,67.0,50.0,30.09,NE,45,3.0,10.0,55,0.00,,,0.01,Rainwise IP-100,2013-08-10 22:48:00,
2013-08-10 18:53:00,68.0,50.0,30.09,NW,315,0.0,7.0,53,0.00,,,0.01,Rainwise IP-100,2013-08-10 22:53:00,
2013-08-10 18:58:00,67.0,50.0,30.09,NW,315,1.0,10.0,53,0.00,,,0.01,Rainwise IP-100,2013-08-10 22:58:00,
2013-08-10 19:03:00,67.0,50.0,30.10,NNE,22,2.0,8.0,55,0.00,,,0.01,Rainwise IP-100,2013-08-10 23:03:00,
2013-08-10 19:08:00,67.0,50.0,30.10,North,360,9.0,11.0,53,0.00,,,0.01,Rainwise IP-100,2013-08-10 23:08:00,
2013-08-10 19:13:00,67.0,50.0,30.10,North,360,3.0,9.0,55,0.00,,,0.01,Rainwise IP-100,2013-08-10 23:13:00,
2013-08-10 19:18:00,66.0,49.0,30.10,NW,315,5.0,9.0,55,0.00,,,0.01,Rainwise IP-100,2013-08-10 23:18:00,
2013-08-10 19:23:00,66.0,50.0,30.11,NNW,337,1.0,9.0,56,0.00,,,0.01,Rainwise IP-100,2013-08-10 23:23:00,
2013-08-10 19:28:00,66.0,50.0,30.11,East,90,2.0,5.0,57,0.00,,,0.01,Rainwise IP-100,2013-08-10 23:28:00,
2013-08-10 19:33:00,65.0,50.0,30.11,NW,315,4.0,7.0,59,0.00,,,0.01,Rainwise IP-100,2013-08-10 23:33:00,
2013-08-10 19:38:00,65.0,50.0,30.11,NNW,337,1.0,6.0,59,0.00,,,0.01,Rainwise IP-100,2013-08-10 23:38:00,
2013-08-10 19:43:00,64.0,50.0,30.11,NNW,337,1.0,13.0,61,0.00,,,0.01,Rainwise IP-100,2013-08-10 23:43:00,
2013-08-10 19:48:00,63.0,50.0,30.11,NNW,337,2.0,13.0,63,0.00,,,0.01,Rainwise IP-100,2013-08-10 23:48:00,
2013-08-10 19:53:00,63.0,50.0,30.12,NNW,337,0.0,6.0,63,0.00,,,0.01,Rainwise IP-100,2013-08-10 23:53:00,
2013-08-10 19:58:00,62.0,50.0,30.12,NW,315,0.0,4.0,64,0.00,,,0.01,Rainwise IP-100,2013-08-10 23:58:00,
2013-08-10 20:03:00,62.0,50.0,30.13,North,360,2.0,4.0,65,0.00,,,0.01,Rainwise IP-100,2013-08-11 00:03:00,
2013-08-10 20:08:00,61.0,50.0,30.13,NNW,337,3.0,4.0,66,0.00,,,0.01,Rainwise IP-100,2013-08-11 00:08:00,
2013-08-10 20:13:00,62.0,50.0,30.13,NNW,337,4.0,7.0,65,0.00,,,0.01,Rainwise IP-100,2013-08-11 00:13:00,
2013-08-10 20:18:00,61.0,50.0,30.13,NNW,337,2.0,7.0,67,0.00,,,0.01,Rainwise IP-100,2013-08-11 00:18:00,
2013-08-10 20:23:00,61.0,50.0,30.13,NNW,337,4.0,6.0,66,0.00,,,0.01,Rainwise IP-100,2013-08-11 00:23:00,
2013-08-10 20:28:00,61.0,50.0,30.13,ENE,67,1.0,6.0,68,0.00,,,0.01,Rainwise IP-100,2013-08-11 00:28:00,
2013-08-10 20:33:00,61.0,50.0,30.13,ENE,67,2.0,3.0,69,0.00,,,0.01,Rainwise IP-100,2013-08-11 00:33:00,
2013-08-10 20:38:00,60.0,50.0,30.13,ENE,67,2.0,3.0,69,0.00,,,0.01,Rainwise IP-100,2013-08-11 00:38:00,
2013-08-10 20:43:00,60.0,49.0,30.14,North,360,4.0,4.0,68,0.00,,,0.01,Rainwise IP-100,2013-08-11 00:43:00,
2013-08-10 20:48:00,60.0,50.0,30.14,North,360,1.0,6.0,69,0.00,,,0.01,Rainwise IP-100,2013-08-11 00:48:00,
2013-08-10 20:53:00,60.0,50.0,30.14,North,360,1.0,7.0,69,0.00,,,0.01,Rainwise IP-100,2013-08-11 00:53:00,
2013-08-10 20:58:00,60.0,50.0,30.14,North,360,0.0,6.0,71,0.00,,,0.01,Rainwise IP-100,2013-08-11 00:58:00,
2013-08-10 21:03:00,60.0,50.0,30.15,North,360,0.0,0.0,72,0.00,,,0.01,Rainwise IP-100,2013-08-11 01:03:00,
2013-08-10 21:08:00,60.0,50.0,30.15,North,360,0.0,5.0,70,0.00,,,0.01,Rainwise IP-100,2013-08-11 01:08:00,
2013-08-10 21:13:00,60.0,50.0,30.15,NW,315,0.0,6.0,70,0.00,,,0.01,Rainwise IP-100,2013-08-11 01:13:00,
2013-08-10 21:18:00,60.0,50.0,30.15,NNW,337,0.0,2.0,70,0.00,,,0.01,Rainwise IP-100,2013-08-11 01:18:00,
2013-08-10 21:23:00,60.0,50.0,30.15,NE,45,0.0,3.0,72,0.00,,,0.01,Rainwise IP-100,2013-08-11 01:23:00,
2013-08-10 21:28:00,60.0,50.0,30.15,ENE,67,1.0,4.0,72,0.00,,,0.01,Rainwise IP-100,2013-08-11 01:28:00,
2013-08-10 21:33:00,59.0,51.0,30.15,ENE,67,0.0,3.0,75,0.00,,,0.01,Rainwise IP-100,2013-08-11 01:33:00,
2013-08-10 21:38:00,59.0,50.0,30.15,NW,315,4.0,4.0,71,0.00,,,0.01,Rainwise IP-100,2013-08-11 01:38:00,
2013-08-10 21:43:00,59.0,50.0,30.16,NNW,337,0.0,4.0,72,0.00,,,0.01,Rainwise IP-100,2013-08-11 01:43:00,
2013-08-10 21:48:00,59.0,50.0,30.16,ESE,112,3.0,4.0,74,0.00,,,0.01,Rainwise IP-100,2013-08-11 01:48:00,
2013-08-10 21:53:00,59.0,50.0,30.16,ESE,112,3.0,4.0,74,0.00,,,0.01,Rainwise IP-100,2013-08-11 01:53:00,
2013-08-10 21:58:00,59.0,50.0,30.16,ESE,112,1.0,3.0,71,0.00,,,0.01,Rainwise IP-100,2013-08-11 01:58:00,
2013-08-10 22:03:00,59.0,50.0,30.16,North,360,4.0,6.0,71,0.00,,,0.01,Rainwise IP-100,2013-08-11 02:03:00,
2013-08-10 22:08:00,59.0,49.0,30.16,WNW,292,5.0,7.0,69,0.00,,,0.01,Rainwise IP-100,2013-08-11 02:08:00,
2013-08-10 22:13:00,59.0,48.0,30.15,NW,315,4.0,7.0,68,0.00,,,0.01,Rainwise IP-100,2013-08-11 02:13:00,
2013-08-10 22:18:00,60.0,50.0,30.15,NW,315,2.0,13.0,70,0.00,,,0.01,Rainwise IP-100,2013-08-11 02:18:00,
2013-08-10 22:23:00,59.0,49.0,30.16,NW,315,0.0,5.0,69,0.00,,,0.01,Rainwise IP-100,2013-08-11 02:23:00,
2013-08-10 22:28:00,59.0,49.0,30.16,NW,315,4.0,11.0,69,0.00,,,0.01,Rainwise IP-100,2013-08-11 02:28:00,
2013-08-10 22:33:00,59.0,50.0,30.16,North,360,5.0,6.0,72,0.00,,,0.01,Rainwise IP-100,2013-08-11 02:33:00,
2013-08-10 22:38:00,59.0,50.0,30.16,NNW,337,0.0,9.0,72,0.00,,,0.01,Rainwise IP-100,2013-08-11 02:38:00,
2013-08-10 22:43:00,59.0,50.0,30.16,NNW,337,0.0,0.0,72,0.00,,,0.01,Rainwise IP-100,2013-08-11 02:43:00,
2013-08-10 22:48:00,59.0,49.0,30.16,North,360,3.0,6.0,70,0.00,,,0.01,Rainwise IP-100,2013-08-11 02:48:00,
2013-08-10 22:53:00,59.0,49.0,30.16,NW,315,3.0,5.0,69,0.00,,,0.01,Rainwise IP-100,2013-08-11 02:53:00,
2013-08-10 22:58:00,60.0,48.0,30.16,NW,315,5.0,9.0,65,0.00,,,0.01,Rainwise IP-100,2013-08-11 02:58:00,
2013-08-10 23:03:00,61.0,48.0,30.15,NW,315,6.0,9.0,63,0.00,,,0.01,Rainwise IP-100,2013-08-11 03:03:00,
2013-08-10 23:08:00,60.0,47.0,30.15,NW,315,0.0,9.0,64,0.00,,,0.01,Rainwise IP-100,2013-08-11 03:08:00,
2013-08-10 23:13:00,60.0,48.0,30.15,NW,315,0.0,0.0,66,0.00,,,0.01,Rainwise IP-100,2013-08-11 03:13:00,
2013-08-10 23:18:00,59.0,49.0,30.15,SE,135,4.0,5.0,69,0.00,,,0.01,Rainwise IP-100,2013-08-11 03:18:00,
2013-08-10 23:23:00,58.0,50.0,30.15,SSE,157,6.0,6.0,75,0.00,,,0.01,Rainwise IP-100,2013-08-11 03:23:00,
2013-08-10 23:28:00,58.0,50.0,30.15,SE,135,6.0,7.0,74,0.00,,,0.01,Rainwise IP-100,2013-08-11 03:28:00,
2013-08-10 23:33:00,57.0,49.0,30.16,SE,135,6.0,7.0,75,0.00,,,0.01,Rainwise IP-100,2013-08-11 03:33:00,
2013-08-10 23:38:00,58.0,48.0,30.16,SE,135,2.0,7.0,69,0.00,,,0.01,Rainwise IP-100,2013-08-11 03:38:00,
2013-08-10 23:43:00,58.0,50.0,30.15,South,180,3.0,6.0,73,0.00,,,0.01,Rainwise IP-100,2013-08-11 03:43:00,
2013-08-10 23:48:00,58.0,49.0,30.15,NNE,22,2.0,6.0,72,0.00,,,0.01,Rainwise IP-100,2013-08-11 03:48:00,
2013-08-10 23:53:00,58.0,50.0,30.16,SSE,157,0.0,4.0,74,0.00,,,0.01,Rainwise IP-100,2013-08-11 03:53:00,
2013-08-10 23:58:00,58.0,50.0,30.16,West,270,3.0,6.0,75,0.00,,,0.01,Rainwise IP-100,2013-08-11 03:58:00,